Location: Chiroubles
(46.1812°N, 4.6660°E)
Time: 04:12:23
(UTC+00:00)

Meteor 1-23 Rocket - Visible Passes

Search period start: 26 November 2020 00:00
Search period end: 06 December 2020 00:00
Orbit: 836 x 890 km, 81.3° (Epoch: 25 November)

Date Brightness Start Highest point End Pass type
(mag) Time Alt. Az. Time Alt. Az. Time Alt. Az.
03 Dec 6.5 06:27:17 10° NNE 06:31:47 23° ENE 06:36:18 10° ESE visible
04 Dec 6.5 06:18:53 10° NNE 06:23:23 22° ENE 06:27:52 10° ESE visible
05 Dec 6.5 06:10:30 10° NNE 06:14:59 22° ENE 06:19:26 10° ESE visible
